#timestamp,LO_Frequency,Hit,StdDev 
1622426415.3,286046995.5,N
1622426435.1,286046995.0,N
1622426455.9,286046996.6,N
1622426475.7,286046996.5,N
1622426495.5,286046996.5,N
1622426515.4,286046996.8,N
1622426535.2,286046997.6,N
1622426555.0,286046995.2,N
1622426555.9,286046995.2,N
1622426575.8,286046995.9,N
1622426595.6,286046996.2,N
1622426615.4,286046995.6,N
1622426635.3,286046997.9,N
1622426655.1,286046995.1,N
1622426675.9,286046997.7,N
1622426695.7,286046999.4,N
1622426715.5,286046999.4,N
1622426735.4,286046997.2,N
1622426755.2,286046996.8,N
1622426775.0,286046999.1,N
1622426775.9,286046999.1,N
1622426795.8,286046998.9,N
1622426815.6,286046998.9,N
1622426835.5,286046997.8,N
1622426855.3,286046999.4,N
1622426875.1,286047000.2,N
1622426895.9,286046998.8,N
1622426915.7,286046998.1,N
1622426935.5,286046998.2,N
1622426955.4,286047000.6,N
1622426975.2,286047000.7,N
1622426995.1,286047001.2,N
1622426996.0,286047001.2,N
1622427015.8,286046999.9,N
1622427035.6,286047001.2,N
1622427055.5,286047000.4,N
1622427075.3,286047001.1,N
1622427095.2,286047000.9,N
1622427115.9,286047000.5,N
1622427135.7,286046997.0,N
1622427155.6,286046997.1,N
1622427175.4,286046997.4,N
1622427195.3,286046996.8,N
1622427215.1,286046999.4,N
1622427216.0,286046999.4,N
1622427235.8,286046998.5,N
1622427255.7,286046998.3,N
1622427275.5,286047000.4,N
1622427295.3,286046998.9,N
1622427315.2,286046998.4,N
1622427335.0,286047001.1,N
1622427335.9,286047001.1,N
1622427355.8,286047000.6,N
1622427375.6,286047000.9,N
1622427395.4,286046999.9,N
1622427415.3,286047000.1,N
1622427435.1,286047000.7,N
1622427455.9,286046999.2,N
1622427475.7,286046999.1,N
1622427495.5,286046999.2,N
1622427515.4,286046999.9,N
1622427535.2,286047002.1,N
1622427555.0,286047002.6,N
1622427555.9,286047002.6,N
1622427575.8,286047000.4,N
1622427595.6,286046999.9,N
1622427615.5,286046999.7,N
1622427635.3,286047000.5,N
1622427655.1,286047002.7,N
1622427675.9,286047000.5,N
1622427695.7,286047000.5,N
1622427715.5,286046999.7,N
1622427735.4,286047002.8,N
1622427755.2,286047001.9,N
1622427775.0,286047000.1,N
1622427776.0,286047000.1,N
1622427795.8,286047002.4,N
1622427815.6,286047002.2,N
1622427835.5,286047000.2,N
1622427855.3,286047000.4,N
1622427875.1,286047000.2,N
1622427895.9,286047000.8,N
1622427915.7,286047000.7,N
1622427935.5,286047000.5,N
1622427955.4,286047001.4,N
1622427975.2,286047001.3,N
1622427995.1,286047001.9,N
1622427996.0,286047001.9,N
1622428015.8,286047001.3,N
1622428035.6,286047002.6,N
1622428055.5,286047001.0,N
1622428075.3,286047002.8,N
1622428095.1,286047001.4,N
1622428115.9,286047000.0,N
1622428135.7,286047002.8,N
1622428155.6,286047000.2,N
1622428175.4,286047002.0,N
1622428195.2,286047004.4,Y
1622428215.1,286047000.2,P
1622428216.0,286047000.2,N
1622428235.8,286047002.6,P
1622428255.7,286047002.0,N
1622428275.5,286047002.3,N
1622428295.3,286047002.3,N
1622428315.2,286047002.5,N
1622428335.0,286047004.0,Y
1622428335.9,286047004.0,P
1622428355.7,286047002.0,N
1622428375.6,286047000.1,N
1622428395.4,286047002.2,N
1622428415.3,286047000.0,N
1622428435.1,286046999.8,N
1622428436.0,286046999.8,N
1622428455.8,286047000.2,N
1622428475.7,286047000.6,N
1622428495.5,286047000.7,N
1622428515.3,286047000.8,N
1622428535.2,286046998.1,N
1622428555.0,286046996.5,N
1622428555.9,286046996.5,N
1622428575.8,286046996.7,N
1622428595.6,286046998.0,N
1622428615.4,286046996.7,N
1622428635.3,286047001.0,N
1622428655.1,286047000.5,N
1622428675.9,286046998.3,N
1622428695.7,286047001.2,N
1622428715.5,286047000.7,N
1622428735.4,286046998.1,N
1622428755.2,286046998.1,N
1622428775.0,286046999.8,N
1622428775.9,286046999.8,N
1622428795.8,286047002.2,N
1622428815.6,286047002.8,N
1622428835.5,286047000.9,N
1622428855.3,286046999.7,N
1622428875.1,286047000.8,N
1622428895.9,286047002.4,N
1622428915.7,286047000.0,N
1622428935.5,286047002.7,N
1622428955.4,286047000.3,N
1622428975.2,286047000.3,N
1622428995.1,286047002.6,N
1622428996.0,286047002.6,N
1622429015.8,286046999.9,N
1622429035.6,286046998.5,N
1622429055.5,286046998.1,N
1622429105.3,286046999.5,E
1622429115.3,286047000.8,N
1622429135.1,286047001.0,P
1622429136.0,286047001.0,P
1622429155.8,286046999.9,N
1622429175.7,286047002.4,Y
1622429195.5,286047002.0,P
1622429215.4,286046999.7,N
1622429235.2,286047000.2,N
1622429255.0,286047000.4,N
1622429255.9,286047000.4,N
1622429275.8,286046999.9,N
1622429295.6,286047001.0,N
1622429315.4,286047001.2,N
1622429335.3,286047000.7,N
1622429355.1,286047000.7,N
1622429375.9,286047000.5,N
1622429395.7,286046998.1,Y
1622429415.5,286046998.9,P
1622429435.4,286046998.9,N
1622429455.2,286046999.5,N
1622429475.0,286047000.7,N
1622429475.9,286047000.7,N
1622429495.8,286046998.6,N
1622429515.6,286046999.4,N
1622429535.5,286046999.4,N
1622429555.3,286046999.1,N
1622429575.1,286046996.6,Y
1622429595.9,286046998.4,P
1622429615.7,286046998.7,N
1622429635.5,286046999.1,N
1622429655.4,286046999.1,N
1622429675.2,286047001.2,N
1622429695.1,286047000.9,N
1622429696.0,286047000.9,N
1622429715.8,286047000.5,N
1622429735.6,286046998.6,N
1622429755.5,286046998.6,N
1622429775.3,286046998.5,N
1622429795.1,286046999.4,N
1622429815.9,286046997.4,N
1622429835.7,286046997.4,N
1622429855.6,286046996.6,N
1622429875.4,286046997.2,N
1622429895.2,286046999.0,N
1622429915.1,286046998.8,N
1622429916.0,286046998.8,N
1622429935.8,286047000.5,N
1622429955.7,286047001.9,N
1622429975.5,286047001.0,N
1622429995.3,286047002.5,N
